Location: Newark
(49.3000°N, 9.4667°E)
Time: 22:36:17
(UTC+00:00)

Transit 2A Rocket - Pass Details

Date: 19 May 2019
Orbit: 587 x 917 km, 66.7° (Epoch: 24 June)

Event Time Altitude Azimuth Distance (km) Brightness Sun altitude
Rises 02:52:12 0° 321° (NW) 3,462 8.4 -6.4°
Reaches altitude 10° 02:54:50 10° 317° (NW) 2,479 7.6 -6.0°
Maximum altitude 03:00:21 52° 243° (WSW) 989 5.3 -5.3°
Drops below altitude 10° 03:05:22 10° 168° (SSE) 2,252 7.2 -4.7°
Sets 03:07:39 0° 163° (SSE) 3,118 7.9 -4.4°
